www.pogodaiklimat.ru
ПОГОДА в Каимана
Время
(UTC), дата
00 15.11
03 15.11
06 15.11
09 15.11
12 15.11
15 15.11
18 15.11
21 15.11
00 16.11
03 16.11
06 16.11
09 16.11
12 16.11
15 16.11
18 16.11
21 16.11
00 17.11
03 17.11
06 17.11
09 17.11
12 17.11
15 17.11
18 17.11
21 17.11
00 18.11
03 18.11
06 18.11
09 18.11
12 18.11
15 18.11
18 18.11
21 18.11
00 19.11
03 19.11
06 19.11
09 19.11
12 19.11
15 19.11
18 19.11
21 19.11
00 20.11
03 20.11
06 20.11
09 20.11
12 20.11
15 20.11
18 20.11
21 20.11
00 21.11
03 21.11
06 21.11
09 21.11
12 21.11
15 21.11
18 21.11
21 21.11
Ветер
(напр.,м/с)
Видим. Явления Облачность Т
(С)
Тd
(С)
f
(%)
Тe
(С)
Тes
(С)
Комфортность P
(гПа)
Po
(гПа)
Тmin
(С)
Tmax
(С)
R
(мм)
R24
(мм)
S
(см)
СЗ 2 10 км 5/3 480 м
[Cu med, cong Ac As Ci fib]
+30.5 +25.6 75 +45 +51 опасность
перегрева
1010.6 1009.7 +24.8
С 3 10 км 6/4 480 м
[Cu med, cong Ac trans Ci sp]
+31.2 +24.3 67 +43 +52 опасность
перегрева
1008.9 1008.0
С 2 10 км 8/5 450 м
[Cu Sc Ac trans Ci sp]
+29.9 +25.0 75 +43 +47 опасность
перегрева
1006.8 1005.9
Ю 2 8000 м 8/4 450 м
[Cu Sc Ac trans Ci sp]
+28.5 +24.7 80 +41 +41 опасность
перегрева
1008.1 1007.2
ЮВ 3 5000 м осадки на расстоянии 10/6 450 м
[Cu Sc As op]
+26.9 +24.9 89 +39 +39 очень
душно
1010.8 1009.9 +32.4 1
штиль 0 5000 м осадки на расстоянии {гроза} 9/5 450 м
[Cb cap As op]
+25.5 +24.8 96 +36 +36 очень
душно
1010.7 1009.8 0.4
штиль 0 5000 м осадки на расстоянии {гроза} 9/6 450 м
[Cb cap As op]
+25.0 +24.3 96 +35 +35 очень
душно
1008.9 1008.0 0.4
штиль 0 6000 м 6/4 450 м
[Cu Sc Ac As Ci sp]
+24.5 +24.0 97 +34 +34 очень
душно
1010.9 1010.0
СЗ 2 8000 м 8/4 450 м
[Cu Sc Ac As Ci sp]
+29.4 +25.8 81 +44 +48 опасность
перегрева
1012.3 1011.4 +24.3 2
З 2 10 км 6/4 450 м
[Cu Sc Ac trans Ci sp]
+30.7 +26.0 76 +46 +56 опасность
перегрева
1010.5 1009.6
Ю 3 8000 м осадки на расстоянии 9/5 450 м
[Cu Sc Ac trans Ci sp]
+30.9 +25.5 73 +45 +48 опасность
перегрева
1008.0 1007.1
штиль 0 7000 м 9/5 450 м
[Cu Sc Ac trans Ci sp]
+28.9 +25.1 80 +42 +42 опасность
перегрева
1009.2 1008.3
штиль 0 6000 м 8/5 450 м
[Cu Sc Ac trans Ci sp]
+27.9 +24.5 82 +39 +39 очень
душно
1010.8 1009.9 +32.5
штиль 0 6000 м 9/5 450 м
[Cu Sc Ac trans Ci sp]
+27.4 +24.5 84 +39 +39 очень
душно
1010.8 1007.9
штиль 0 6000 м 6/4 450 м
[Cu hum Ac As Ci sp]
+26.7 +24.0 85 +37 +37 очень
душно
1009.6 1008.7
ЮВ 2 6000 м осадки на расстоянии 6/4 450 м
[Cu Sc Ac As Ci sp]
+26.5 +23.0 81 +35 +35 очень
душно
1010.7 1009.8
Ю 3 10 км 5/3 450 м
[Cu med, cong Ac trans Ci sp]
+31.3 +24.4 67 +44 +49 опасность
перегрева
1012.4 1011.5 +26.2
Ю 3 10 км 6/3 450 м
[Cu med, cong Ac trans Ci sp]
+31.9 +24.5 65 +45 +55 опасность
перегрева
1010.4 1009.5
Ю 2 8000 м 8/4 450 м
[Cu Sc Ac trans Ci sp]
+29.8 +25.1 76 +43 +47 опасность
перегрева
1008.6 1007.7
штиль 0 7000 м 10/8 450 м
[Cu Sc Ac trans Ci sp]
+28.3 +25.1 83 +41 +41 опасность
перегрева
1009.6 1008.7
штиль 0 6000 м 10/8 450 м
[Cu Sc Ac trans Ci sp]
+27.4 +25.2 88 +40 +40 очень
душно
1011.3 1010.4 +32.9
штиль 0 5000 м осадки на расстоянии 10/6 450 м
[Cu Sc As op Ci fib]
+26.3 +24.9 92 +38 +38 очень
душно
1010.8 1009.9
штиль 0 5000 м 8/4 450 м
[Cu Sc Ac trans Ci sp]
+25.1 +24.1 94 +35 +35 очень
душно
1009.4 1008.5
штиль 0 7000 м 6/4 450 м
[Cu Sc Ac trans Ci sp]
+25.4 +24.4 94 +35 +35 очень
душно
1010.3 1009.4
З 2 10 км 5/3 450 м
[Cu med, cong Ac trans Ci sp]
+30.2 +25.5 76 +44 +51 опасность
перегрева
1011.9 1011.0 +24.9
ЮВ 2 10 км 6/4 450 м
[Cu Sc Ac trans Ci sp]
+31.9 +24.2 64 +44 +54 опасность
перегрева
1009.9 1009.0
Ю 3 10 км 6/4 450 м
[Cu Sc Ac trans Ci sp]
+31.3 +25.6 72 +46 +51 опасность
перегрева
1007.5 1006.6
Ю 2 8000 м 5/3 450 м
[Cu hum Ac trans Ci sp]
+28.6 +24.6 79 +41 +41 опасность
перегрева
1008.3 1007.4
штиль 0 7000 м 5/3 450 м
[Cu med, cong Ac trans Ci sp]
+27.1 +24.4 85 +38 +38 очень
душно
1009.4 1008.5 +32.5
штиль 0 6000 м 6/4 450 м
[Cu Sc Ac trans Ci sp]
+26.6 +24.4 88 +37 +37 очень
душно
1009.5 1008.6
штиль 0 6000 м 6/4 450 м
[Cu Sc Ac trans Ci sp]
+25.9 +23.8 88 +35 +35 очень
душно
1008.3 1007.4
штиль 0 7000 м 6/4 450 м
[Cu Sc Ac lent Ci sp]
+25.2 +23.3 89 +34 +34 очень
душно
1008.9 1008.0
Ю 3 10 км 5/3 450 м
[Cu med, cong Ac trans Ci sp]
+30.6 +23.0 64 +41 +46 опасность
перегрева
1010.1 1009.2 +25.1
Ю 2 10 км 4/3 450 м
[Cu med, cong Ci sp]
+31.8 +24.4 65 +44 +58 опасность
перегрева
1008.4 1007.5
Ю 3 10 км 5/3 450 м
[Cu med, cong Ci sp]
+31.1 +25.2 71 +45 +51 опасность
перегрева
1006.6 1005.7
ЮВ 2 8000 м 6/4 450 м
[Cu Sc Ac trans Ci sp]
+28.9 +24.7 78 +41 +41 опасность
перегрева
1007.8 1006.9
штиль 0 7000 м 6/4 450 м
[Cu Sc Ac trans Ci sp]
+26.3 +24.4 89 +37 +37 очень
душно
1009.9 1009.0 +32.4
штиль 0 6000 м 6/3 450 м
[Cu med, cong Ac trans Ci sp]
+25.9 +23.9 89 +36 +36 очень
душно
1009.1 1008.2
штиль 0 5000 м 8/4 450 м
[Cu Sc Ac trans Ci sp]
+25.7 +24.5 93 +36 +36 очень
душно
1008.0 1007.1 0.4
штиль 0 7000 м 5/3 450 м
[Cu med, cong Ac trans Ci sp]
+24.5 +23.6 95 +33 +33 очень
душно
1008.7 1007.8
штиль 0 8000 м 4/3 450 м
[Cu med, cong Ci sp]
+29.8 +25.9 80 +45 +54 опасность
перегрева
1010.2 1009.3 +24.5 0.4
ЮЗ 3 9000 м 4/3 450 м
[Cu med, cong Ci sp]
+31.3 +25.8 73 +47 +59 опасность
перегрева
1009.1 1008.2
Ю 2 9000 м 4/4 450 м
[Cu Sc Ci sp]
+32.2 +25.5 68 +47 +53 опасность
перегрева
1006.5 1005.6
штиль 0 8000 м 5/4 450 м
[Cu Sc Ci sp]
+29.4 +25.2 78 +43 +43 опасность
перегрева
1007.7 1006.6
Ю 2 6000 м 6/4 450 м
[Cu Sc Ac trans Ci sp]
+28.5 +25.3 83 +42 +42 опасность
перегрева
1009.5 1008.6 +33.1
штиль 0 6000 м 6/3 450 м
[Cu med, cong Ac trans Ci sp]
+26.5 +24.3 88 +37 +37 очень
душно
1009.0 1008.1
штиль 0 6000 м 6/3 450 м
[Cu med, cong Ac trans Ci sp]
+26.2 +24.4 90 +37 +37 очень
душно
1008.4 1007.5
штиль 0 7000 м 9/4 450 м
[Cu Sc Ac trans Ci sp]
+25.9 +25.2 96 +37 +37 очень
душно
1009.9 1009.0 7
штиль 0 4800 м 8/4 450 м
[Cu Sc Ac trans Ci sp]
+30.1 +25.5 76 +44 +49 опасность
перегрева
1011.4 1010.5 +25.6 7
ЮВ 3 10 км 8/4 450 м
[Cu Sc Ac trans Ci sp]
+30.5 +24.9 72 +44 +51 опасность
перегрева
1009.2 1008.3
Ю 3 8000 м 8/4 450 м
[Cu Sc Ac trans Ci sp]
+30.8 +25.3 73 +45 +48 опасность
перегрева
1007.3 1006.4
штиль 0 7000 м 8/4 450 м
[Cb cap Ac trans Ci sp]
+28.7 +24.8 79 +41 +41 опасность
перегрева
1007.4 1006.5
штиль 0 6000 м 8/4 450 м
[Cb cap Ac trans Ci sp]
+26.9 +24.6 87 +38 +38 очень
душно
1010.3 1009.4 +32.5
штиль 0 6000 м гроза без осадков 6/4 450 м
[Cb cap Ac trans Ci sp]
+25.5 +24.5 94 +36 +36 очень
душно
1010.1 1009.2
штиль 0 5000 м 6/4 450 м
[Cu Sc Ac trans Ci sp]
+24.6 +23.6 94 +33 +33 очень
душно
1009.0 1008.1
штиль 0 6000 м 6/3 450 м
[Cu Sc Ac trans Ci sp]
+24.6 +23.7 95 +33 +33 очень
душно
1010.3 1009.4
Местоположение метеостанции Каимана (Индонезия): широта -3.67 долгота 133.75 высота над уровнем моря 3 м.
В архиве по умолчанию представлена погода в Каимана за последнюю неделю. Архивные данные за месяц целиком и за предыдущие месяцы, начиная с января 2011 года, Вы можете получить, выбрав интересующий диапазон дат из раскрывающегося списка и нажав кнопку "Найти!".
*Определитесь, кто Вы:
Внимание! Время в таблицах - всемирное. Для получения местного времени необходимо прибавить поправку, которая равна 9 ч.
Смотрите также архив погоды в соседних городах и на ближайших метеорологических станциях:
Партнеры нашего сайта:      
Пояснения к столбцам:
  • Ветер - указаны скорость ветра в м/с - средняя за 10 мин, порывы в срок и между сроками (в фигурных скобках) и направление, откуда дует ветер: С - северный,
  • СВ - северо-восточный, В - восточный, ЮВ - юго-восточный, Ю - южный, ЮЗ - юго-западный, З - западный, СЗ - северо-западный.
  • Видимость - горизонтальная дальность видимости в метрах или километрах. При видимости от 1 до 10 км при отсутствии осадков обычно наблюдается дымка, при ухудшении видимости до 1 км и менее - туман. В сухую погоду видимость может ухудшаться дымом, пылью или мглою.
  • Явления - указаны атмосферные явления, наблюдавшиеся в срок или в последний час перед сроком; фигурными скобками обозначены явления, наблюдавшиеся между сроками (за 1-3 часа до срока); квадратными скобками обозначены град или гололедные отложения с указанием их диаметра в мм.
  • Облачность - указаны через наклонную черту общая и нижняя облачность в баллах и высота нижней границы облаков в метрах; квадратными скобками обозначены формы облаков: Ci - перистые, Cs - перисто-слоистые, Cc - перисто-кучевые, Ac - высококучевые, As - высокослоистые, Sc - слоисто-кучевые, Ns - слоисто-дождевые, Cu - кучевые, Cb - кучево-дождевые. Подробнее классификацию облаков см. в Атласе облаков (PDF).
  • T - Температура воздуха - температура, измеренная на высоте 2 м над землей.
  • Td - Температура точки росы - температура, при понижении до которой содержащийся в воздухе водяной пар достигнет насыщения.
  • f - Относительная влажность воздуха - влажноcть воздуха, измеренная на высоте 2 м над землей.
  • Te - Эффективная температура - температура, которую ощущает одетый по сезону человек в тени. Характеристика душности погоды. При расчете учитывается влияние влажности воздуха и скорости ветра на теплоощущения человека.
  • Tes - Эффективная температура на солнце - температура, которую ощущает человек, с поправкой на солнечный нагрев. Характеристика знойности погоды. Зависит от высоты солнца над горизонтом, облачности и скорости ветра. Ночью, в пасмурную погоду, а также при ветре 12 м/с и более поправка равна нулю.
  • P - Атмосферное давление - приведенное к уровню моря атмосферное давление.
  • Po - Атмосферное давление - измеренное на уровне метеостанции атмосферное давление.
  • Tmin - Минимальная температура - минимум температуры воздуха на высоте 2 м над землей.
  • Tmax - Максимальная температура - максимум температуры воздуха на высоте 2 м над землей.
  • R - Количество осадков - Количество выпавших осадков за период времени, мм. При наведении курсора мыши на число - период времени, за который выпало указанное количество осадков.
  • R24 - Количество осадков - Количество выпавших осадков за 24 часа, мм.
  • S - Снежный покров - Высота снежного покрова, см. При наведении курсора мыши на число - состояние снежного покрова и степень покрытия местности в баллах.